Lamar, CO

10:27 AM MST on December 07, 2019 (GMT -0700)
Lamar Municipal

Weather History for KLAA - October, 2019

Change the Weather History Date:

Monday, October 14, 2019

  Actual Average Record
Temperature  
Mean Temperature 54 °F 54 °F  
Max Temperature 84 °F 71 °F 94 °F (1968)
Min Temperature 25 °F 36 °F 24 °F (1952)
Degree Days  
Heating Degree Days 10 12  
Month to date heating degree days 126  
Since 1 July heating degree days 209  
Cooling Degree Days 0 0  
Month to date cooling degree days 8  
Year to date cooling degree days 1120  
Growing Degree Days 4 (Base 50)    
Moisture  
Dew Point 19 °F    
Average Humidity 34    
Maximum Humidity 78    
Minimum Humidity 7    
Precipitation  
Precipitation 0.00 in 0.03 in 1.55 in (1923)
Month to date precipitation 0.36  
Year to date precipitation 13.98  
Sea Level Pressure  
Sea Level Pressure 29.81 in    
Wind  
Wind Speed 6 mph (WSW)    
Max Wind Speed 13 mph    
Max Gust Speed 18 mph    
Visibility 10 miles    
Events      
T = Trace of Precipitation, MM = Missing Value Source: NWS Daily Summary

Daily Weather History Graph

Daily Weather History Graph

Search for Another Location

Airport or City:

Astronomy

Oct. 14, 2019 Rise Set
Actual Time 6:58 AM MDT 6:14 PM MDT
Civil Twilight 6:31 AM MDT 6:41 PM MDT
Nautical Twilight 6:01 AM MDT 7:11 PM MDT
Astronomical Twilight 5:30 AM MDT 7:42 PM MDT
Moon 7:06 PM MDT (10/14) 7:32 AM MDT (10/14)
Length of Visible Light 12h 09m
Length of Day
11h 16m
Full, 99% of the Moon is Illuminated
Oct 14
Full
Oct 21
Last Quarter
Oct 27
New
Nov 4
First Quarter
Nov 12
Full

Hourly Weather History & Observations

Time (MDT) Temp. Windchill Dew Point Humidity Pressure Visibility Wind Dir Wind Speed Gust Speed Precip Events Conditions
12:53 AM 45.0 °F 43.5 °F 32.0 °F 60% 29.86 in 10.0 mi East 3.5 mph - N/A   Clear
1:53 AM 39.0 °F - 28.9 °F 67% 29.87 in 10.0 mi Calm Calm - N/A   Clear
2:53 AM 37.9 °F 32.1 °F 30.0 °F 73% 29.84 in 10.0 mi East 8.1 mph - N/A   Clear
3:53 AM 34.0 °F 29.8 °F 27.0 °F 75% 29.84 in 10.0 mi East 4.6 mph - N/A   Clear
4:53 AM 32.0 °F 27.5 °F 25.0 °F 75% 29.84 in 10.0 mi WSW 4.6 mph - N/A   Clear
5:53 AM 32.0 °F 25.6 °F 25.0 °F 75% 29.87 in 10.0 mi SSW 6.9 mph - N/A   Clear
6:53 AM 25.0 °F 16.3 °F 19.0 °F 78% 29.92 in 10.0 mi West 8.1 mph - N/A   Clear
7:53 AM 37.9 °F 30.9 °F 17.1 °F 43% 29.90 in 10.0 mi WSW 10.4 mph - N/A   Clear
8:53 AM 46.9 °F - 19.9 °F 34% 29.90 in 10.0 mi West 12.7 mph - N/A   Clear
9:53 AM 57.0 °F - 21.0 °F 25% 29.87 in 10.0 mi WSW 9.2 mph - N/A   Clear
10:53 AM 66.9 °F - 19.9 °F 17% 29.83 in 10.0 mi WNW 8.1 mph - N/A   Clear
11:53 AM 75.0 °F - 16.0 °F 11% 29.80 in 10.0 mi West 8.1 mph - N/A   Clear
12:53 PM 80.1 °F - 9.0 °F 7% 29.76 in 10.0 mi WSW 4.6 mph - N/A   Clear
1:53 PM 82.9 °F - 15.1 °F 8% 29.74 in 10.0 mi NW 8.1 mph 18.4 mph N/A   Clear
2:53 PM 84.0 °F - 15.1 °F 8% 29.73 in 10.0 mi WNW 12.7 mph 17.3 mph N/A   Clear
3:53 PM 82.9 °F - 15.1 °F 8% 29.73 in 10.0 mi Variable 3.5 mph - N/A   Clear
4:53 PM 82.0 °F - 15.1 °F 8% 29.73 in 10.0 mi South 6.9 mph - N/A   Clear
5:53 PM 73.9 °F - 14.0 °F 10% 29.74 in 10.0 mi ESE 8.1 mph - N/A   Clear
6:53 PM 64.0 °F - 14.0 °F 14% 29.79 in 10.0 mi ESE 9.2 mph - N/A   Clear
7:53 PM 64.0 °F - 15.1 °F 15% 29.77 in 10.0 mi SE 11.5 mph - N/A   Clear
8:53 PM 62.1 °F - 14.0 °F 15% 29.78 in 10.0 mi ESE 9.2 mph - N/A   Clear
9:53 PM 52.0 °F - 21.0 °F 30% 29.78 in 10.0 mi NE 4.6 mph - N/A   Clear
10:53 PM 48.0 °F - 19.0 °F 32% 29.79 in 10.0 mi North 4.6 mph - N/A   Clear
11:53 PM 46.9 °F - 18.0 °F 32% 29.79 in 10.0 mi North 5.8 mph - N/A   Clear